Simultaneous Nadir Overpasses (SNOs) Predictions

Prediction of SNOs between AQUA and METOP-B Satellite Orbit:

Table of predicted SNOs for the next 14.0 days since TLE Epoch: 3/9/2013
Index Date (AQUA) Time (AQUA) Lat,Lon (AQUA) SZA (AQUA ) Date (METOP-B) Time (METOP-B) Lat,Lon (METOP-B) SZA (METOP-B ) Distance(km) Time Diff (sec)
1 03/11/2013 02:20:09 73.75, 139.35 77.52 03/11/2013 02:19:42 73.75, 139.45 77.52 3.22 27
2 03/11/2013 03:09:35 -73.78, -53.07 102.47 03/11/2013 03:10:23 -73.78, -53.13 102.46 2.00 48
3 03/13/2013 21:04:45 -73.18, 39.36 104.20 03/13/2013 21:03:37 -73.11, 37.09 104.15 73.48 68
4 03/13/2013 21:54:23 73.72,-154.15 76.37 03/13/2013 21:54:04 73.74,-154.14 76.40 2.99 19
5 03/13/2013 22:43:50 -73.80, 13.32 103.56 03/13/2013 22:44:45 -73.79, 13.29 103.57 1.19 55
6 03/16/2013 16:39:05 -73.44, 105.26 105.04 03/16/2013 16:37:54 -73.41, 104.17 105.01 34.90 71
7 03/16/2013 17:28:38 73.72, -87.71 75.26 03/16/2013 17:28:27 73.74, -87.75 75.28 2.08 11
8 03/16/2013 18:18:05 -73.80, 79.76 104.68 03/16/2013 18:19:08 -73.79, 79.70 104.69 2.15 63
9 03/19/2013 12:13:24 -73.68, 171.19 105.90 03/19/2013 12:12:12 -73.66, 171.13 105.91 3.24 72
10 03/19/2013 13:02:53 73.76, -21.34 74.18 03/19/2013 13:02:49 73.77, -21.26 74.19 2.87 4
11 03/19/2013 13:52:20 -73.83, 146.14 105.76 03/19/2013 13:53:30 -73.83, 146.21 105.77 2.33 70
12 03/22/2013 07:47:37 -73.69,-122.38 107.01 03/22/2013 07:46:33 -73.69,-122.37 106.99 0.37 64
13 03/22/2013 08:37:06 73.77, 45.07 73.07 03/22/2013 08:37:11 73.75, 45.10 73.05 2.95 5




NCC Satellite Simultaneous Nadir Overpasses (SNOs) Prediction Service
